Location: Oshawa
(43.9000°N, 78.8670°W)
Time: 06:39:17
(UTC-04:00)

Cosmos 1408 Rocket - Visible Passes

Search period start: 30 March 2015 00:00
Search period end: 09 April 2015 00:00
Orbit: 602 x 632 km, 82.6° (Epoch: 29 March)

Date Brightness Start Highest point End Pass type
(mag) Time Alt. Az. Time Alt. Az. Time Alt. Az.
30 Mar 6.1 06:13:51 10° SE 06:17:33 27° E 06:21:20 10° NNE visible
31 Mar 4.9 06:29:55 10° SSE 06:34:11 47° E 06:38:30 10° NNE visible
02 Apr 6.7 05:27:45 10° ESE 05:30:13 15° E 05:32:53 10° NE visible
03 Apr 5.9 05:43:07 10° SE 05:46:48 26° E 05:50:33 10° NNE visible
04 Apr 4.8 05:59:10 10° SSE 06:03:26 47° E 06:07:43 10° NNE visible
05 Apr 3.7 06:15:40 10° S 06:20:08 87° E 06:24:35 10° N visible
06 Apr 6.5 04:57:01 10° ESE 04:59:28 15° E 05:02:05 10° NE visible
07 Apr 5.8 05:12:22 10° SE 05:16:02 26° E 05:19:45 10° NNE visible
08 Apr 4.7 05:28:24 10° SSE 05:32:39 47° E 05:36:55 10° NNE visible
